QPF
0.02 0.04 0.06 0.08 0.07 0.06 0.05 0.05 0.05 0.06 0.05 0.04 0.04 0.03 0.03 0.04 0.05 0.06 0.06 0.07 0.07 0.07 0.07 0.06 0.06 0.04 0.03 0.03 0.03 0.05 0.06 0.05 0.04 0.02 0.01 0.00 0.00 0.00 0.00 0.01 0.01 0.02 0.02
0.02 0.03 0.04 0.06 0.07 0.06 0.05 0.04 0.04 0.04 0.04 0.04 0.04 0.03 0.03 0.03 0.04 0.04 0.05 0.06 0.06 0.06 0.06 0.07 0.06 0.04 0.04 0.04 0.04 0.04 0.05 0.04 0.04 0.03 0.01 0.01 0.00 0.00 0.00 0.01 0.01 0.02 0.02
0.04 0.02 0.03 0.03 0.05 0.06 0.05 0.03 0.03 0.03 0.03 0.03 0.04 0.04 0.03 0.03 0.03 0.04 0.04 0.05 0.05 0.05 0.05 0.06 0.07 0.05 0.05 0.04 0.04 0.04 0.05 0.05 0.04 0.04 0.02 0.01 0.01 0.00 0.01 0.01 0.01 0.02 0.02
0.06 0.03 0.02 0.02 0.03 0.04 0.04 0.03 0.03 0.02 0.03 0.03 0.03 0.03 0.03 0.03 0.03 0.03 0.03 0.04 0.05 0.04 0.04 0.04 0.05 0.05 0.05 0.04 0.04 0.05 0.06 0.06 0.05 0.05 0.03 0.02 0.01 0.01 0.01 0.01 0.02 0.03 0.03
0.07 0.04 0.02 0.02 0.02 0.02 0.03 0.03 0.03 0.02 0.02 0.02 0.02 0.02 0.02 0.03 0.03 0.03 0.03 0.03 0.04 0.04 0.04 0.03 0.03 0.04 0.04 0.04 0.04 0.06 0.06 0.06 0.05 0.05 0.04 0.03 0.02 0.01 0.01 0.01 0.02 0.03 0.03
0.06 0.06 0.02 0.01 0.01 0.02 0.02 0.03 0.03 0.03 0.03 0.03 0.02 0.02 0.02 0.02 0.03 0.03 0.03 0.03 0.03 0.03 0.04 0.04 0.03 0.04 0.04 0.04 0.05 0.06 0.05 0.05 0.05 0.04 0.03 0.02 0.02 0.01 0.01 0.01 0.01 0.02 0.03
0.06 0.06 0.05 0.02 0.02 0.02 0.02 0.03 0.03 0.03 0.03 0.03 0.03 0.02 0.02 0.02 0.03 0.03 0.03 0.03 0.03 0.03 0.03 0.03 0.03 0.03 0.04 0.04 0.06 0.06 0.05 0.05 0.05 0.04 0.03 0.02 0.02 0.01 0.02 0.02 0.02 0.02 0.02
0.06 0.06 0.06 0.04 0.03 0.02 0.02 0.03 0.03 0.03 0.03 0.03 0.03 0.02 0.02 0.02 0.03 0.04 0.04 0.03 0.03 0.03 0.03 0.03 0.03 0.04 0.04 0.05 0.06 0.07 0.06 0.06 0.06 0.04 0.04 0.03 0.02 0.02 0.02 0.02 0.02 0.02 0.02
0.06 0.06 0.06 0.06 0.04 0.03 0.03 0.03 0.03 0.03 0.03 0.03 0.03 0.02 0.02 0.02 0.03 0.04 0.05 0.03 0.03 0.03 0.03 0.03 0.03 0.04 0.05 0.06 0.06 0.07 0.07 0.07 0.06 0.05 0.04 0.03 0.03 0.02 0.02 0.02 0.02 0.03 0.02
0.06 0.06 0.07 0.07 0.06 0.04 0.03 0.03 0.04 0.04 0.04 0.04 0.04 0.03 0.03 0.03 0.04 0.05 0.05 0.04 0.03 0.03 0.03 0.03 0.03 0.04 0.05 0.06 0.06 0.07 0.07 0.07 0.07 0.06 0.05 0.04 0.03 0.03 0.04 0.03 0.02 0.03 0.03
0.06 0.07 0.07 0.08 0.07 0.05 0.04 0.04 0.04 0.05 0.05 0.05 0.05 0.04 0.03 0.03 0.04 0.05 0.05 0.04 0.04 0.04 0.04 0.04 0.04 0.05 0.06 0.07 0.06 0.06 0.06 0.06 0.06 0.06 0.06 0.06 0.06 0.06 0.06 0.05 0.04 0.03 0.03
0.04 0.06 0.07 0.07 0.08 0.07 0.06 0.04 0.05 0.06 0.06 0.06 0.06 0.06 0.05 0.04 0.04 0.05 0.05 0.04 0.04 0.05 0.05 0.04 0.04 0.06 0.07 0.08 0.08 0.07 0.08 0.08 0.07 0.07 0.07 0.07 0.07 0.07 0.06 0.06 0.06 0.06 0.05
0.04 0.04 0.05 0.06 0.07 0.07 0.07 0.06 0.06 0.06 0.06 0.06 0.06 0.06 0.07 0.06 0.06 0.06 0.06 0.05 0.05 0.06 0.06 0.05 0.05 0.06 0.07 0.07 0.07 0.06 0.06 0.07 0.07 0.07 0.06 0.06 0.06 0.06 0.06 0.06 0.06 0.06 0.06
0.03 0.03 0.04 0.05 0.07 0.08 0.09 0.08 0.08 0.07 0.06 0.05 0.05 0.05 0.06 0.07 0.07 0.07 0.06 0.06 0.07 0.07 0.06 0.05 0.06 0.07 0.07 0.06 0.06 0.06 0.05 0.06 0.06 0.06 0.06 0.06 0.06 0.06 0.07 0.06 0.06 0.05 0.05
0.04 0.03 0.04 0.05 0.06 0.08 0.09 0.10 0.09 0.08 0.07 0.06 0.05 0.05 0.06 0.06 0.06 0.05 0.06 0.06 0.06 0.06 0.06 0.06 0.06 0.06 0.06 0.06 0.06 0.06 0.06 0.07 0.07 0.06 0.06 0.06 0.06 0.06 0.06 0.06 0.05 0.05 0.04
0.04 0.03 0.04 0.05 0.05 0.06 0.08 0.09 0.10 0.09 0.08 0.07 0.06 0.06 0.07 0.07 0.06 0.06 0.06 0.06 0.06 0.05 0.05 0.05 0.05 0.04 0.04 0.05 0.05 0.06 0.07 0.08 0.07 0.07 0.07 0.06 0.06 0.05 0.05 0.04 0.04 0.04 0.03
0.04 0.04 0.04 0.04 0.05 0.06 0.07 0.07 0.08 0.09 0.09 0.08 0.07 0.06 0.07 0.07 0.07 0.06 0.05 0.05 0.05 0.05 0.05 0.04 0.04 0.04 0.04 0.04 0.05 0.06 0.07 0.07 0.07 0.07 0.06 0.05 0.05 0.04 0.04 0.03 0.03 0.03 0.02
0.03 0.04 0.05 0.05 0.05 0.06 0.06 0.05 0.05 0.06 0.07 0.07 0.07 0.07 0.07 0.07 0.07 0.06 0.05 0.05 0.06 0.05 0.04 0.04 0.04 0.04 0.04 0.04 0.04 0.05 0.06 0.06 0.06 0.06 0.05 0.05 0.04 0.04 0.04 0.03 0.02 0.02 0.02
0.03 0.04 0.04 0.04 0.04 0.04 0.04 0.04 0.04 0.04 0.05 0.05 0.06 0.07 0.07 0.06 0.06 0.06 0.05 0.05 0.04 0.04 0.04 0.04 0.04 0.03 0.04 0.04 0.05 0.05 0.05 0.05 0.05 0.05 0.05 0.05 0.04 0.04 0.03 0.03 0.02 0.02 0.02
0.02 0.02 0.02 0.03 0.03 0.03 0.04 0.04 0.04 0.04 0.04 0.05 0.05 0.05 0.05 0.05 0.06 0.06 0.05 0.04 0.04 0.04 0.03 0.03 0.03 0.03 0.03 0.03 0.04 0.04 0.04 0.04 0.04 0.04 0.04 0.04 0.04 0.03 0.03 0.03 0.02 0.02 0.02
0.02 0.01 0.02 0.02 0.02 0.03 0.04 0.04 0.04 0.04 0.04 0.05 0.05 0.05 0.05 0.05 0.04 0.04 0.03 0.03 0.03 0.03 0.03 0.03 0.03 0.03 0.03 0.03 0.03 0.03 0.04 0.04 0.04 0.04 0.04 0.04 0.04 0.04 0.03 0.03 0.03 0.02 0.02
0.02 0.02 0.02 0.02 0.02 0.03 0.03 0.04 0.04 0.04 0.04 0.04 0.05 0.06 0.06 0.05 0.04 0.04 0.03 0.03 0.03 0.03 0.03 0.03 0.02 0.02 0.02 0.02 0.02 0.02 0.03 0.03 0.03 0.03 0.04 0.04 0.04 0.04 0.04 0.03 0.03 0.03 0.03
0.01 0.02 0.02 0.02 0.02 0.03 0.03 0.03 0.04 0.04 0.04 0.04 0.04 0.05 0.05 0.05 0.04 0.03 0.03 0.03 0.03 0.03 0.03 0.03 0.03 0.02 0.02 0.02 0.03 0.03 0.03 0.03 0.03 0.03 0.03 0.04 0.04 0.04 0.04 0.04 0.03 0.03 0.03
0.01 0.01 0.01 0.02 0.02 0.03 0.03 0.03 0.03 0.04 0.04 0.04 0.04 0.04 0.04 0.04 0.04 0.04 0.03 0.03 0.02 0.03 0.03 0.03 0.03 0.03 0.03 0.02 0.03 0.03 0.03 0.03 0.04 0.04 0.04 0.04 0.04 0.04 0.04 0.04 0.03 0.03 0.03
0.01 0.01 0.01 0.02 0.02 0.02 0.02 0.03 0.03 0.04 0.04 0.04 0.04 0.04 0.04 0.04 0.04 0.04 0.04 0.04 0.03 0.03 0.03 0.03 0.03 0.03 0.03 0.02 0.02 0.02 0.03 0.04 0.04 0.05 0.05 0.05 0.06 0.06 0.05 0.04 0.04 0.03 0.03
0.01 0.01 0.01 0.01 0.02 0.02 0.02 0.02 0.02 0.03 0.03 0.04 0.04 0.04 0.04 0.04 0.04 0.04 0.04 0.04 0.04 0.03 0.03 0.03 0.03 0.03 0.03 0.03 0.02 0.02 0.03 0.04 0.04 0.05 0.06 0.06 0.06 0.06 0.06 0.06 0.05 0.04 0.04
MSLP
1009.35 1009.27 1009.61 1010.35 1011.43 1012.78 1014.28 1015.84 1017.37 1018.78 1020.04 1021.15 1022.11 1022.99 1023.84 1024.69 1025.59 1026.52 1027.47 1028.41 1029.28 1030.05 1030.70 1031.24 1031.72 1032.17 1032.68 1033.30 1034.07 1035.00 1036.06 1037.21 1038.36 1039.44 1040.36 1041.08 1041.57 1041.84 1041.94 1041.92 1041.84 1041.76 1041.74
1009.65 1009.33 1009.45 1010.01 1010.98 1012.27 1013.76 1015.34 1016.91 1018.37 1019.67 1020.80 1021.78 1022.65 1023.49 1024.33 1025.21 1026.15 1027.12 1028.08 1028.98 1029.78 1030.45 1030.99 1031.43 1031.83 1032.27 1032.81 1033.51 1034.38 1035.42 1036.57 1037.77 1038.94 1039.99 1040.86 1041.52 1041.97 1042.23 1042.35 1042.40 1042.41 1042.45
1009.98 1009.42 1009.33 1009.73 1010.58 1011.80 1013.27 1014.86 1016.46 1017.96 1019.30 1020.45 1021.43 1022.30 1023.11 1023.92 1024.79 1025.71 1026.68 1027.67 1028.60 1029.44 1030.14 1030.71 1031.17 1031.56 1031.97 1032.46 1033.09 1033.90 1034.88 1035.99 1037.19 1038.38 1039.50 1040.47 1041.26 1041.85 1042.27 1042.54 1042.73 1042.88 1043.01
1010.34 1009.58 1009.31 1009.54 1010.27 1011.40 1012.83 1014.42 1016.03 1017.55 1018.91 1020.08 1021.07 1021.92 1022.70 1023.48 1024.32 1025.22 1026.19 1027.18 1028.15 1029.03 1029.80 1030.42 1030.93 1031.35 1031.76 1032.22 1032.79 1033.53 1034.42 1035.46 1036.60 1037.76 1038.87 1039.88 1040.75 1041.45 1042.00 1042.44 1042.78 1043.08 1043.35
1010.78 1009.84 1009.39 1009.47 1010.06 1011.10 1012.46 1014.01 1015.60 1017.13 1018.51 1019.68 1020.67 1021.51 1022.27 1023.03 1023.83 1024.71 1025.66 1026.66 1027.66 1028.59 1029.42 1030.11 1030.68 1031.16 1031.58 1032.04 1032.57 1033.23 1034.03 1034.96 1035.99 1037.06 1038.12 1039.12 1040.01 1040.79 1041.45 1042.02 1042.52 1042.98 1043.42
1011.31 1010.22 1009.62 1009.53 1009.98 1010.89 1012.15 1013.63 1015.19 1016.69 1018.06 1019.24 1020.23 1021.07 1021.82 1022.55 1023.33 1024.19 1025.12 1026.12 1027.14 1028.11 1029.00 1029.77 1030.40 1030.94 1031.40 1031.85 1032.35 1032.94 1033.64 1034.46 1035.36 1036.32 1037.29 1038.23 1039.11 1039.92 1040.66 1041.34 1041.98 1042.60 1043.19
1011.93 1010.73 1009.99 1009.75 1010.03 1010.79 1011.92 1013.29 1014.76 1016.21 1017.56 1018.73 1019.73 1020.57 1021.33 1022.06 1022.83 1023.67 1024.59 1025.59 1026.61 1027.61 1028.54 1029.36 1030.06 1030.64 1031.15 1031.62 1032.09 1032.63 1033.24 1033.94 1034.72 1035.56 1036.43 1037.29 1038.14 1038.95 1039.73 1040.49 1041.24 1041.99 1042.73
1012.65 1011.36 1010.49 1010.09 1010.20 1010.78 1011.74 1012.96 1014.31 1015.69 1016.99 1018.15 1019.15 1020.02 1020.79 1021.54 1022.32 1023.15 1024.07 1025.05 1026.06 1027.07 1028.01 1028.87 1029.61 1030.24 1030.78 1031.27 1031.75 1032.25 1032.81 1033.43 1034.11 1034.85 1035.62 1036.41 1037.20 1038.00 1038.80 1039.60 1040.42 1041.25 1042.09
1013.43 1012.08 1011.09 1010.54 1010.46 1010.84 1011.59 1012.63 1013.84 1015.10 1016.34 1017.47 1018.49 1019.38 1020.20 1020.99 1021.79 1022.63 1023.54 1024.50 1025.50 1026.48 1027.43 1028.29 1029.05 1029.71 1030.29 1030.81 1031.31 1031.81 1032.35 1032.93 1033.56 1034.24 1034.94 1035.67 1036.42 1037.19 1037.98 1038.79 1039.63 1040.50 1041.38
1014.22 1012.83 1011.74 1011.04 1010.78 1010.93 1011.47 1012.30 1013.33 1014.46 1015.61 1016.72 1017.74 1018.67 1019.54 1020.38 1021.22 1022.08 1022.99 1023.94 1024.90 1025.86 1026.78 1027.62 1028.39 1029.07 1029.68 1030.24 1030.78 1031.32 1031.88 1032.47 1033.09 1033.75 1034.43 1035.13 1035.85 1036.58 1037.34 1038.13 1038.95 1039.81 1040.68
1014.99 1013.57 1012.40 1011.56 1011.11 1011.04 1011.35 1011.95 1012.79 1013.77 1014.82 1015.88 1016.90 1017.88 1018.80 1019.70 1020.59 1021.49 1022.41 1023.35 1024.28 1025.20 1026.07 1026.89 1027.65 1028.34 1028.98 1029.59 1030.18 1030.78 1031.40 1032.04 1032.70 1033.38 1034.07 1034.77 1035.47 1036.18 1036.90 1037.65 1038.42 1039.22 1040.04
1015.68 1014.26 1013.02 1012.05 1011.42 1011.15 1011.22 1011.60 1012.23 1013.05 1013.99 1014.99 1016.00 1017.01 1017.99 1018.96 1019.90 1020.84 1021.78 1022.71 1023.61 1024.49 1025.33 1026.11 1026.85 1027.54 1028.21 1028.86 1029.52 1030.19 1030.89 1031.61 1032.34 1033.08 1033.81 1034.53 1035.23 1035.92 1036.61 1037.30 1038.01 1038.74 1039.49
1016.28 1014.85 1013.56 1012.49 1011.70 1011.23 1011.08 1011.24 1011.67 1012.32 1013.14 1014.06 1015.05 1016.07 1017.10 1018.12 1019.13 1020.11 1021.07 1022.00 1022.89 1023.73 1024.53 1025.28 1026.00 1026.69 1027.38 1028.08 1028.80 1029.55 1030.33 1031.13 1031.94 1032.75 1033.53 1034.29 1035.00 1035.69 1036.35 1037.00 1037.65 1038.31 1038.97
1016.75 1015.34 1014.02 1012.86 1011.94 1011.30 1010.95 1010.91 1011.14 1011.62 1012.30 1013.13 1014.07 1015.09 1016.14 1017.20 1018.25 1019.27 1020.26 1021.19 1022.07 1022.89 1023.66 1024.39 1025.09 1025.78 1026.48 1027.21 1027.99 1028.80 1029.65 1030.53 1031.42 1032.29 1033.13 1033.92 1034.66 1035.35 1036.01 1036.63 1037.23 1037.84 1038.46
1017.11 1015.72 1014.38 1013.17 1012.15 1011.36 1010.85 1010.62 1010.66 1010.97 1011.50 1012.22 1013.09 1014.07 1015.11 1016.18 1017.26 1018.30 1019.31 1020.25 1021.12 1021.93 1022.68 1023.39 1024.08 1024.77 1025.48 1026.24 1027.04 1027.91 1028.81 1029.74 1030.68 1031.60 1032.49 1033.32 1034.09 1034.80 1035.46 1036.08 1036.68 1037.27 1037.87
1017.36 1016.01 1014.68 1013.44 1012.35 1011.46 1010.81 1010.41 1010.28 1010.42 1010.79 1011.38 1012.15 1013.05 1014.04 1015.09 1016.15 1017.20 1018.20 1019.14 1020.01 1020.81 1021.55 1022.25 1022.93 1023.62 1024.34 1025.11 1025.93 1026.81 1027.74 1028.70 1029.67 1030.63 1031.54 1032.40 1033.20 1033.95 1034.64 1035.29 1035.92 1036.54 1037.16
1017.57 1016.26 1014.97 1013.73 1012.60 1011.64 1010.88 1010.34 1010.06 1010.02 1010.23 1010.66 1011.29 1012.08 1012.98 1013.96 1014.96 1015.97 1016.94 1017.86 1018.72 1019.51 1020.24 1020.93 1021.61 1022.30 1023.02 1023.79 1024.62 1025.51 1026.45 1027.42 1028.39 1029.36 1030.29 1031.18 1032.01 1032.79 1033.53 1034.24 1034.93 1035.61 1036.30
1017.77 1016.54 1015.29 1014.08 1012.95 1011.94 1011.10 1010.45 1010.02 1009.82 1009.86 1010.12 1010.58 1011.21 1011.98 1012.84 1013.75 1014.68 1015.59 1016.46 1017.28 1018.05 1018.76 1019.45 1020.13 1020.82 1021.54 1022.31 1023.14 1024.02 1024.95 1025.92 1026.89 1027.86 1028.80 1029.70 1030.57 1031.40 1032.20 1032.98 1033.75 1034.53 1035.31
1018.04 1016.89 1015.72 1014.55 1013.44 1012.42 1011.52 1010.78 1010.22 1009.87 1009.74 1009.81 1010.09 1010.54 1011.13 1011.83 1012.60 1013.41 1014.22 1015.01 1015.77 1016.49 1017.18 1017.85 1018.52 1019.21 1019.93 1020.70 1021.53 1022.41 1023.33 1024.28 1025.25 1026.21 1027.16 1028.08 1028.98 1029.85 1030.72 1031.58 1032.44 1033.32 1034.21
1018.43 1017.36 1016.28 1015.19 1014.11 1013.10 1012.17 1011.36 1010.70 1010.21 1009.91 1009.79 1009.88 1010.12 1010.52 1011.03 1011.63 1012.28 1012.96 1013.64 1014.30 1014.96 1015.60 1016.24 1016.89 1017.57 1018.29 1019.06 1019.89 1020.76 1021.68 1022.62 1023.58 1024.54 1025.49 1026.43 1027.36 1028.28 1029.19 1030.13 1031.07 1032.04 1033.03
1018.96 1017.99 1017.00 1015.99 1014.97 1013.98 1013.04 1012.19 1011.44 1010.84 1010.39 1010.11 1010.00 1010.05 1010.24 1010.55 1010.95 1011.42 1011.93 1012.47 1013.03 1013.59 1014.16 1014.75 1015.37 1016.03 1016.74 1017.51 1018.33 1019.20 1020.11 1021.05 1022.01 1022.96 1023.92 1024.87 1025.81 1026.76 1027.72 1028.70 1029.71 1030.75 1031.81
1019.64 1018.78 1017.88 1016.95 1015.99 1015.04 1014.11 1013.24 1012.44 1011.75 1011.19 1010.77 1010.49 1010.36 1010.35 1010.46 1010.67 1010.95 1011.29 1011.67 1012.09 1012.53 1013.02 1013.54 1014.11 1014.73 1015.42 1016.17 1016.98 1017.85 1018.75 1019.68 1020.63 1021.58 1022.53 1023.48 1024.42 1025.38 1026.36 1027.37 1028.41 1029.48 1030.58
1020.45 1019.68 1018.87 1018.02 1017.13 1016.23 1015.33 1014.47 1013.65 1012.91 1012.27 1011.75 1011.35 1011.06 1010.90 1010.84 1010.86 1010.96 1011.13 1011.35 1011.62 1011.94 1012.31 1012.74 1013.24 1013.81 1014.45 1015.17 1015.96 1016.80 1017.68 1018.60 1019.52 1020.46 1021.39 1022.32 1023.25 1024.19 1025.16 1026.16 1027.19 1028.27 1029.38
1021.35 1020.66 1019.92 1019.14 1018.33 1017.48 1016.63 1015.79 1014.98 1014.24 1013.57 1012.99 1012.51 1012.13 1011.84 1011.64 1011.53 1011.47 1011.49 1011.55 1011.68 1011.87 1012.12 1012.44 1012.85 1013.34 1013.92 1014.58 1015.32 1016.11 1016.96 1017.83 1018.72 1019.61 1020.51 1021.40 1022.29 1023.20 1024.13 1025.09 1026.09 1027.14 1028.22
1022.27 1021.64 1020.97 1020.25 1019.50 1018.72 1017.92 1017.13 1016.37 1015.65 1014.99 1014.40 1013.90 1013.47 1013.11 1012.83 1012.60 1012.43 1012.32 1012.26 1012.25 1012.31 1012.44 1012.65 1012.95 1013.34 1013.83 1014.41 1015.07 1015.79 1016.56 1017.37 1018.20 1019.04 1019.87 1020.71 1021.55 1022.40 1023.27 1024.17 1025.12 1026.10 1027.14
1023.16 1022.58 1021.96 1021.30 1020.60 1019.88 1019.15 1018.42 1017.73 1017.07 1016.46 1015.90 1015.41 1014.98 1014.60 1014.27 1013.98 1013.74 1013.53 1013.36 1013.25 1013.19 1013.20 1013.30 1013.48 1013.76 1014.14 1014.61 1015.17 1015.79 1016.47 1017.19 1017.94 1018.69 1019.45 1020.21 1020.98 1021.76 1022.57 1023.40 1024.28 1025.20 1026.17
Thickness
5455 5455 5455 5455 5455 5455 5455 5456 5457 5457 5458 5458 5458 5458 5459 5460 5461 5462 5462 5463 5464 5465 5466 5466 5467 5468 5469 5470 5471 5472 5472 5473 5475 5476 5475 5475 5474 5474 5474 5473 5473 5473 5473
5445 5445 5444 5444 5444 5444 5445 5446 5446 5447 5447 5448 5448 5448 5448 5449 5450 5451 5451 5452 5453 5454 5455 5456 5456 5457 5458 5459 5460 5461 5462 5464 5464 5466 5464 5463 5463 5464 5464 5463 5463 5463 5463
5433 5434 5434 5433 5434 5434 5434 5435 5435 5436 5437 5437 5438 5438 5438 5439 5440 5441 5441 5441 5442 5443 5444 5445 5446 5446 5447 5448 5449 5450 5452 5453 5454 5455 5455 5453 5452 5451 5451 5451 5451 5451 5452
5421 5423 5423 5423 5423 5424 5424 5424 5425 5426 5426 5427 5427 5427 5428 5429 5429 5430 5430 5430 5431 5432 5433 5434 5435 5436 5437 5437 5438 5439 5440 5440 5441 5442 5443 5442 5440 5440 5439 5439 5439 5439 5440
5409 5411 5412 5412 5412 5412 5413 5413 5413 5414 5415 5415 5415 5416 5416 5416 5417 5418 5418 5419 5419 5420 5421 5422 5423 5425 5426 5426 5428 5429 5429 5429 5429 5430 5432 5431 5429 5428 5428 5428 5427 5427 5427
5397 5399 5400 5400 5400 5400 5401 5401 5401 5402 5402 5402 5403 5404 5404 5405 5406 5408 5408 5407 5407 5408 5409 5410 5411 5413 5414 5415 5417 5419 5420 5420 5420 5420 5421 5421 5421 5420 5418 5416 5415 5414 5415
5386 5386 5387 5387 5387 5388 5388 5388 5388 5389 5389 5390 5390 5391 5392 5392 5394 5395 5396 5395 5396 5396 5397 5398 5400 5402 5402 5403 5404 5406 5408 5409 5411 5411 5411 5412 5411 5410 5408 5406 5404 5403 5404
5373 5373 5374 5374 5375 5375 5374 5374 5375 5375 5376 5377 5377 5378 5379 5380 5380 5382 5382 5382 5382 5384 5385 5387 5388 5390 5392 5393 5393 5394 5396 5397 5398 5399 5400 5402 5400 5398 5397 5396 5394 5391 5391
5360 5360 5360 5361 5361 5361 5361 5361 5361 5362 5363 5364 5365 5365 5366 5367 5367 5369 5369 5368 5369 5371 5372 5374 5376 5378 5381 5383 5383 5384 5385 5385 5385 5386 5387 5387 5387 5386 5385 5382 5380 5378 5378
5346 5346 5346 5346 5347 5347 5348 5348 5348 5348 5350 5351 5351 5352 5352 5353 5354 5356 5356 5356 5357 5358 5359 5362 5363 5366 5368 5371 5372 5373 5373 5374 5373 5373 5373 5374 5374 5373 5372 5371 5370 5367 5366
5331 5332 5332 5333 5333 5333 5334 5334 5334 5335 5335 5336 5338 5339 5339 5339 5341 5343 5344 5344 5346 5346 5347 5349 5351 5353 5356 5359 5362 5362 5363 5362 5361 5361 5361 5361 5360 5359 5358 5357 5357 5356 5355
5316 5317 5318 5318 5319 5320 5320 5320 5320 5321 5321 5322 5323 5324 5325 5326 5328 5330 5331 5333 5334 5335 5336 5338 5339 5342 5344 5347 5348 5350 5349 5349 5349 5348 5349 5348 5348 5347 5345 5344 5343 5342 5343
5303 5303 5303 5304 5305 5306 5306 5307 5307 5307 5308 5310 5311 5312 5313 5314 5315 5317 5319 5321 5322 5323 5324 5326 5328 5330 5332 5333 5335 5336 5336 5335 5336 5336 5336 5335 5334 5333 5331 5330 5328 5328 5327
5288 5289 5289 5290 5290 5291 5293 5294 5294 5295 5296 5298 5299 5301 5301 5302 5303 5304 5305 5307 5309 5310 5311 5312 5315 5317 5318 5320 5321 5321 5322 5322 5323 5323 5322 5321 5319 5318 5317 5316 5315 5313 5311
5273 5274 5275 5275 5276 5277 5278 5279 5281 5282 5284 5286 5288 5289 5290 5291 5293 5294 5294 5296 5297 5297 5297 5298 5300 5302 5304 5306 5307 5308 5308 5308 5308 5308 5307 5306 5305 5304 5303 5302 5301 5300 5298
5259 5259 5260 5260 5261 5262 5264 5265 5267 5269 5272 5274 5276 5277 5279 5280 5282 5283 5284 5286 5286 5285 5285 5286 5288 5290 5292 5293 5294 5295 5295 5295 5294 5294 5293 5292 5291 5291 5290 5288 5287 5286 5285
5243 5244 5245 5246 5246 5247 5249 5250 5252 5255 5257 5260 5262 5264 5266 5267 5269 5270 5272 5273 5273 5274 5274 5275 5276 5278 5280 5280 5281 5283 5283 5282 5281 5280 5279 5278 5277 5277 5276 5275 5273 5272 5271
5228 5230 5231 5231 5232 5233 5234 5235 5237 5239 5242 5244 5247 5250 5252 5254 5256 5257 5258 5259 5259 5259 5260 5262 5263 5265 5266 5267 5268 5269 5269 5268 5267 5266 5265 5265 5264 5263 5262 5262 5261 5259 5258
5215 5216 5217 5218 5218 5219 5220 5221 5222 5224 5226 5228 5231 5234 5237 5240 5242 5243 5243 5244 5244 5245 5247 5248 5250 5251 5252 5253 5253 5254 5255 5254 5253 5252 5251 5251 5250 5249 5249 5248 5247 5247 5245
5201 5204 5205 5205 5205 5205 5206 5207 5209 5210 5211 5214 5216 5218 5221 5224 5226 5227 5229 5230 5231 5232 5233 5234 5236 5237 5239 5239 5240 5241 5241 5240 5239 5239 5238 5237 5237 5236 5236 5235 5234 5233 5232
5188 5189 5191 5191 5191 5192 5193 5194 5195 5196 5198 5200 5203 5205 5210 5211 5212 5214 5215 5217 5217 5219 5220 5221 5223 5224 5226 5226 5227 5227 5228 5228 5227 5226 5226 5225 5225 5224 5223 5222 5222 5220 5219
5175 5175 5176 5176 5177 5178 5180 5181 5182 5183 5185 5187 5190 5192 5197 5198 5199 5201 5202 5203 5204 5206 5207 5209 5210 5212 5213 5214 5215 5215 5216 5216 5216 5215 5214 5213 5213 5211 5210 5209 5208 5207 5206
5162 5162 5163 5164 5164 5166 5167 5168 5168 5170 5171 5174 5176 5179 5181 5183 5185 5187 5189 5190 5192 5194 5195 5197 5199 5200 5202 5203 5204 5205 5205 5206 5205 5205 5204 5202 5201 5200 5199 5198 5196 5195 5195
5150 5150 5150 5151 5152 5152 5153 5154 5155 5156 5158 5160 5163 5165 5167 5169 5172 5174 5176 5178 5180 5182 5184 5186 5188 5190 5191 5192 5193 5194 5195 5195 5195 5194 5193 5192 5191 5189 5188 5187 5186 5185 5184
5139 5138 5138 5138 5139 5139 5140 5141 5142 5143 5145 5147 5150 5152 5154 5157 5159 5161 5163 5165 5168 5171 5173 5176 5178 5180 5181 5182 5183 5184 5185 5185 5185 5184 5183 5182 5181 5180 5178 5177 5176 5175 5173
5128 5127 5127 5127 5127 5127 5128 5129 5130 5131 5133 5135 5137 5139 5141 5144 5146 5148 5151 5153 5156 5159 5162 5164 5167 5169 5171 5172 5173 5174 5175 5176 5176 5176 5175 5174 5173 5172 5170 5168 5167 5166 5165